FLOCK 4Q 5

导读 | 星芒AI

FLOCK 4Q 5 是由 Planet Labs 运营的 Dove 卫星系列中的一颗小型地球观测卫星。该卫星属于 Flock 4Q 群组,于 2016 年发射,主要用于获取高分辨率多光谱地球影像。它运行在低地球轨道,支持每天多次成像,广泛应用于环境监测、农业管理和灾害响应等领域。Flock 4Q 5 与其他 Dove 卫星协同工作,为用户提供频繁更新的全球影像数据。

基本信息
目录编号:
58325
目录名称:
FLOCK 4Q 5
国际标识:
2023-174BX
轨道中心:
EARTH
卫星名称:
FLOCK 4Q 5
卫星全名:
--
卫星状态:
已陨落 最后检测时间 2025-04-22
发射日期:
2023-11-11 UTC
国别 :
美国 (US)
星等 :
--
轨道信息
数据来源 国际轨道数据
星历时间: 2025-04-17T17:34:33+0800
轨道信息已过期242天
半长轴: 6535.586km
偏心率: 0.0013374
轨道倾角: 97.386°
近地点辐角 265.229°
升交点赤经 195.917°
平近点角 94.748°
近地点: 148.71km
远地点: 166.192km
周期: 87.637分钟
每日圈数: 16.431453
详细信息
使用方式:
暂无